Terug naar catalogus

RCM 1

ActiefWetenschapSSO
NORAD 44322·PAYLOAD·🇨🇦 Canada

Gelanceerd Jun 12, 2019 vanaf Vandenberg Space Force Base

Loading…

Volgende Passages (komende 24 uur)

TLE

VersSource: Space-Track

Epoch: Sep 14, 2026, 15:27 UTC

1 44322U 19033A   26257.64427723  .00000769  00000-0  80200-4 0  9994
2 44322  97.7602 263.8268 0001498  90.0776 336.7251 14.92591982395424

Volg RCM 1 in realtime met AllMySat

Download on the App Store